Location: Sevilla
(37.3933°N, 5.9839°W)
Time: 05:52:58
(UTC+02:00)

Vanguard 3 - Pass Details

Date: 29 June 2024
Orbit: 508 x 3231 km, 33.4° (Epoch: 15 July)

Event Time Altitude Azimuth Distance (km) Brightness Sun altitude
Rises 06:41:04 0° 212° (SSW) 7,176 11.4 -5.0°
Reaches altitude 10° 06:46:47 10° 205° (SSW) 6,114 11.1 -4.1°
Maximum altitude 07:02:21 33° 150° (SSE) 3,858 10.6 -1.5°
Drops below altitude 10° 07:13:44 10° 92° (E) 4,509 12.1 0.5°
Sets 07:17:08 0° 83° (E) 5,151 12.8 1.1°
